Location: ??
(34.9170°N, 135.5016°E)
Time: 18:09:29
(UTC+00:00)

Cosmos 2322 Rocket - Pass Details

Date: 29 October 2020
Orbit: 833 x 851 km, 71.0° (Epoch: 30 November)

Event Time Altitude Azimuth Distance (km) Brightness Sun altitude
Rises 20:11:02 0° 350° (N) 3,413 5.2 -14.0°
Reaches altitude 10° 20:13:50 10° 1° (N) 2,471 4.6 -13.5°
Maximum altitude 20:18:43 29° 61° (ENE) 1,496 4.1 -12.5°
Drops below altitude 10° 20:23:34 10° 120° (ESE) 2,449 5.8 -11.5°
Sets 20:26:18 0° 132° (SE) 3,377 6.4 -11.0°
